NOAA 16 DEB, 41086

Orbit data source: Space-Track

NOAA 16 DEB, 41086 is space debris in SSO originally from a launch on Thu, 21 Sep 2000 UTC launched from the Air Force Western Test Range (AFWTR). Debris objects in space refer to the collection of defunct objects orbiting the Earth. Examples of debris include non-operational satellites, rocket bodies, and fragments generated from explosions, collisions, or faulty payload assembly.

Loading next visibility...
NOAA 16 DEB details
Identifier
41086, 2000-055AV
Orbit
SSO
Last TLE update11 hours ago
Origin
Flag of USNOAA (US)
ManufacturerUnknown
MissionSpacecraft
Bus & MotorUnknown
MassUnknown
Launch date (UTC)
2000-09-21 (24 years ago)
Launch vehicleUnknown
Launch site
Air Force Western Test Range (AFWTR)
Object type
Payload
Rocket body
Debris
Shape & HBRUnknown
Radar Cross SectionSmall (<0.1 m²)

Expand to show TLE details & history

TLE from 11 hours ago
0 NOAA 16 DEB
1 41086U 00055AV  24336.81953743  .00030239  00000-0  79824-2 0  9996
2 41086  98.8015 106.5519 0038149 253.0256 106.6753 14.48379797469687
Epoch: 2024-12-01T19:40Z
Definitive object data (Epoch: 2024-12-01T19:40:08.033Z)
Latitude-0.00006°
Longitude100.36616°
Altitude741.774 km
Speed7.48 km/s
True Right ascension07h 06m 12s
True Declination0° 00' 00"
Sunlit
Object was in full shadow at TLE epoch
Visualization TLE readout
Latitude-53.45252°
Longitude112.85041°
Altitude735.667 km
Speed7.494 km/s
Apparent Right ascension12h 59m 04s
Apparent Declination-69° 12' 39"
Sunlit
Object is in daylight
Visualization observer readout
Local Sidereal Time04:47:30
Azimuth153.331° SSE
Elevation-48.393°
Doppler factor1
Orbital elements
Apogee altitude755.18 km
Perigee altitude700.961 km
Semi-major axis7,106.207 km
Eccentricity0.0038149
Inclination98.8015°
RAAN106.5519°
Arg. of periapsis253.0256°
True anomaly107.0935°
Mean anomaly106.6753°
Eccentric anomaly106.88446°
Mean motion3.62315 °/min
BSTAR0.0079824
Orbital period99.36 mins
Loading maneuver chart data...
Loading historical data...
Loading historical data...
Loading historical data...
Loading historical data...
Loading historical data...
Loading historical data...
Loading historical data...

NOAA 16 DEB Visibility forecast

Observer location: undefined°, undefined

Span
Click to sort rows by Start time (UTC) header in descending order
Start Az.
Max El. time (UTC)
Max El. Az.
Max El.
End time (UTC)
End Az.
4 mins2024-12-02 07:27:30.222Z85.343° E2024-12-02 07:29:30.222Z58.844° ENE14.774°2024-12-02 07:31:30.222Z33.396° NE
8 mins2024-12-02 09:03:30.222Z179.325° S2024-12-02 09:06:30.222Z225.135° WSW41.296°2024-12-02 09:11:30.222Z339.395° N
7 mins2024-12-02 21:08:30.222Z42.951° NE2024-12-02 21:11:30.222Z99.482° ESE30.024°2024-12-02 21:15:30.222Z161.677° S
6 mins2024-12-02 22:46:30.222Z340.051° N2024-12-02 22:49:30.222Z293.857° NW23.223°2024-12-02 22:52:30.222Z247.588° W
|